When you browse on this site, cookies collect data to enhance your experience and personalize the content and advertising you see.
Visit our Privacy Policy to learn more. By continuing to use the site, you agree to this use of cookies and data.
  • In Belgium
  • List of Countries
  • For 7 days
  • Water Temperature
  • Satellite Maps
  • Weather Map
  • Weather Widgets
  • user-avatar
    Login

    Hourly Weather Kentwood

    Today, 23 February, Saturday

    Time Temperature Precipitation Wind Pressure Humidity
    00:00 -5°C° 0 mm 3 mps 749 mmHg 87%
    01:00 -5°C° 0 mm 3 mps 749 mmHg 85%
    02:00 -5°C° 0 mm 3 mps 748 mmHg 83%
    03:00 -5°C° 0 mm 4 mps 748 mmHg 81%
    04:00 -5°C° 0 mm 4 mps 747 mmHg 81%
    05:00 -5°C° 0 mm 5 mps 746 mmHg 81%
    06:00 -5°C° 0 mm 5 mps 746 mmHg 81%
    07:00 -5°C° 0 mm 6 mps 745 mmHg 80%
    08:00 -4°C° 0 mm 6 mps 745 mmHg 79%
    09:00 -3°C° 0 mm 7 mps 744 mmHg 77%
    10:00 -1°C° 0.6 mm 5 mps 743 mmHg 79%
    11:00 -1°C° 0.6 mm 4 mps 742 mmHg 81%
    12:00 +1°C° 0.6 mm 3 mps 742 mmHg 82%
    13:00 +1°C° 0.5 mm 3 mps 741 mmHg 85%
    14:00 +1°C° 0.5 mm 3 mps 740 mmHg 87%
    15:00 +1°C° 0.5 mm 3 mps 739 mmHg 89%
    16:00 0°C° 0.1 mm 4 mps 738 mmHg 90%
    17:00 0°C° 0.1 mm 4 mps 737 mmHg 90%
    18:00 0°C° 0.1 mm 5 mps 736 mmHg 90%
    19:00 +1°C° 0.1 mm 5 mps 734 mmHg 92%
    20:00 +1°C° 0.1 mm 5 mps 733 mmHg 94%
    21:00 +1°C° 0.1 mm 5 mps 731 mmHg 96%
    22:00 +3°C° 1.3 mm 6 mps 729 mmHg 96%
    23:00 +4°C° 1.3 mm 7 mps 727 mmHg 96%

    Tomorrow, 24 February, Sunday

    Time Temperature Precipitation Wind Pressure Humidity
    00:00 +6°C° 1.3 mm 8 mps 725 mmHg 95%
    01:00 +5°C° 0.7 mm 7 mps 723 mmHg 90%
    02:00 +5°C° 0.7 mm 6 mps 722 mmHg 84%
    03:00 +5°C° 0.7 mm 5 mps 721 mmHg 78%
    04:00 +4°C° 0.3 mm 6 mps 720 mmHg 79%
    05:00 +4°C° 0.3 mm 7 mps 719 mmHg 80%
    06:00 +2°C° 0.3 mm 8 mps 718 mmHg 81%
    07:00 +1°C° 0.3 mm 10 mps 718 mmHg 82%
    08:00 -1°C° 0.3 mm 11 mps 719 mmHg 82%
    09:00 -2°C° 0.3 mm 12 mps 719 mmHg 82%
    10:00 -4°C° 0.3 mm 13 mps 721 mmHg 80%
    11:00 -4°C° 0.3 mm 14 mps 723 mmHg 78%
    12:00 -4°C° 0.3 mm 15 mps 724 mmHg 76%
    13:00 -5°C° 0.2 mm 15 mps 726 mmHg 77%
    14:00 -6°C° 0.2 mm 14 mps 727 mmHg 77%
    15:00 -8°C° 0.2 mm 14 mps 729 mmHg 78%
    16:00 -9°C° 0.2 mm 14 mps 730 mmHg 77%
    17:00 -9°C° 0.2 mm 14 mps 731 mmHg 76%
    18:00 -10°C° 0.2 mm 14 mps 732 mmHg 75%
    19:00 -11°C° 0.2 mm 13 mps 733 mmHg 75%
    20:00 -11°C° 0.2 mm 13 mps 734 mmHg 74%
    21:00 -12°C° 0.2 mm 13 mps 735 mmHg 74%
    22:00 -14°C° 0.1 mm 13 mps 737 mmHg 75%
    23:00 -13°C° 0.1 mm 12 mps 738 mmHg 75%

    Day after tomorrow, 25 February, Monday

    Time Temperature Precipitation Wind Pressure Humidity
    00:00 -15°C° 0.1 mm 12 mps 739 mmHg 75%
    01:00 -16°C° 0.1 mm 11 mps 740 mmHg 76%
    02:00 -17°C° 0.1 mm 11 mps 741 mmHg 77%
    03:00 -17°C° 0.1 mm 10 mps 743 mmHg 77%
    04:00 -18°C° 0.1 mm 10 mps 744 mmHg 77%
    05:00 -17°C° 0.1 mm 9 mps 745 mmHg 77%
    06:00 -18°C° 0.1 mm 8 mps 746 mmHg 77%
    07:00 -18°C° 0 mm 8 mps 747 mmHg 76%
    08:00 -18°C° 0 mm 8 mps 748 mmHg 75%
    09:00 -18°C° 0 mm 8 mps 749 mmHg 74%
    10:00 -17°C° 0 mm 7 mps 750 mmHg 73%
    11:00 -17°C° 0 mm 7 mps 750 mmHg 72%
    12:00 -15°C° 0 mm 7 mps 751 mmHg 71%
    13:00 -15°C° 0 mm 7 mps 751 mmHg 71%
    14:00 -15°C° 0 mm 6 mps 751 mmHg 71%
    15:00 -15°C° 0 mm 6 mps 751 mmHg 71%
    16:00 -15°C° 0 mm 6 mps 751 mmHg 71%
    17:00 -14°C° 0 mm 5 mps 751 mmHg 72%
    18:00 -15°C° 0 mm 4 mps 751 mmHg 72%
    19:00 -14°C° 0 mm 4 mps 752 mmHg 72%
    20:00 -13°C° 0 mm 3 mps 752 mmHg 72%
    21:00 -13°C° 0 mm 3 mps 752 mmHg 72%
    22:00 -13°C° 0 mm 3 mps 753 mmHg 74%
    23:00 -12°C° 0 mm 2 mps 753 mmHg 75%

    26 February, Tuesday

    Time Temperature Precipitation Wind Pressure Humidity
    00:00 -12°C° 0 mm 2 mps 753 mmHg 76%
    01:00 -12°C° 0 mm 2 mps 753 mmHg 78%
    02:00 -13°C° 0 mm 2 mps 753 mmHg 79%
    03:00 -13°C° 0 mm 2 mps 753 mmHg 81%
    04:00 -11°C° 0 mm 1 mps 753 mmHg 80%
    05:00 -11°C° 0 mm 1 mps 754 mmHg 79%
    06:00 -11°C° 0 mm 1 mps 754 mmHg 78%
    07:00 -10°C° 0 mm 1 mps 754 mmHg 74%
    08:00 -10°C° 0 mm 1 mps 754 mmHg 70%
    09:00 -9°C° 0 mm 1 mps 755 mmHg 66%
    10:00 -9°C° 0 mm 2 mps 754 mmHg 63%
    11:00 -8°C° 0 mm 2 mps 754 mmHg 59%
    12:00 -8°C° 0 mm 2 mps 754 mmHg 56%
    13:00 -8°C° 0.1 mm 2 mps 753 mmHg 62%
    14:00 -8°C° 0.1 mm 3 mps 752 mmHg 67%
    15:00 -8°C° 0.1 mm 3 mps 752 mmHg 73%
    16:00 -9°C° 0.4 mm 3 mps 751 mmHg 79%
    17:00 -10°C° 0.4 mm 4 mps 751 mmHg 84%
    18:00 -11°C° 0.4 mm 5 mps 751 mmHg 89%
    19:00 -11°C° 0.4 mm 5 mps 750 mmHg 89%
    20:00 -11°C° 0.4 mm 5 mps 750 mmHg 90%
    21:00 -11°C° 0.4 mm 5 mps 749 mmHg 90%
    22:00 -11°C° 0.5 mm 5 mps 749 mmHg 90%
    23:00 -11°C° 0.5 mm 5 mps 748 mmHg 91%

    27 February, Wednesday

    Time Temperature Precipitation Wind Pressure Humidity
    00:00 -10°C° 0.5 mm 5 mps 747 mmHg 92%
    01:00 -10°C° 0.7 mm 5 mps 746 mmHg 92%
    02:00 -10°C° 0.7 mm 5 mps 745 mmHg 93%
    03:00 -10°C° 0.7 mm 5 mps 745 mmHg 94%
    04:00 -9°C° 0.6 mm 4 mps 744 mmHg 94%
    05:00 -9°C° 0.6 mm 4 mps 744 mmHg 95%
    06:00 -7°C° 0.6 mm 3 mps 743 mmHg 95%
    07:00 -7°C° 0.3 mm 3 mps 743 mmHg 95%
    08:00 -5°C° 0.3 mm 2 mps 743 mmHg 95%
    09:00 -3°C° 0.3 mm 1 mps 742 mmHg 95%
    10:00 -4°C° 0.4 mm 2 mps 742 mmHg 95%
    11:00 -4°C° 0.4 mm 3 mps 742 mmHg 95%
    12:00 -3°C° 0.4 mm 4 mps 742 mmHg 95%
    13:00 -5°C° 0.1 mm 5 mps 742 mmHg 92%
    14:00 -5°C° 0.1 mm 6 mps 742 mmHg 90%
    15:00 -7°C° 0.1 mm 7 mps 742 mmHg 87%
    16:00 -8°C° 0 mm 7 mps 742 mmHg 86%
    17:00 -9°C° 0 mm 6 mps 743 mmHg 85%
    18:00 -10°C° 0 mm 6 mps 744 mmHg 84%
    19:00 -10°C° 0 mm 5 mps 744 mmHg 85%
    20:00 -10°C° 0 mm 4 mps 744 mmHg 86%
    21:00 -9°C° 0 mm 3 mps 745 mmHg 87%
    22:00 -9°C° 0 mm 3 mps 745 mmHg 88%
    23:00 -9°C° 0 mm 3 mps 745 mmHg 88%

    28 February, Thursday

    Time Temperature Precipitation Wind Pressure Humidity
    00:00 -10°C° 0 mm 3 mps 746 mmHg 89%
    01:00 -9°C° 0 mm 2 mps 746 mmHg 89%
    02:00 -10°C° 0 mm 2 mps 746 mmHg 90%
    03:00 -10°C° 0 mm 2 mps 746 mmHg 90%
    04:00 -10°C° 0 mm 1 mps 746 mmHg 90%
    05:00 -10°C° 0 mm 1 mps 746 mmHg 90%
    06:00 -11°C° 0 mm 1 mps 746 mmHg 91%
    07:00 -9°C° 0 mm 1 mps 747 mmHg 87%
    08:00 -8°C° 0 mm 1 mps 747 mmHg 84%
    09:00 -7°C° 0 mm 1 mps 748 mmHg 80%
    10:00 -7°C° 0 mm 2 mps 748 mmHg 80%
    11:00 -7°C° 0 mm 2 mps 747 mmHg 80%
    12:00 -6°C° 0 mm 2 mps 747 mmHg 80%
    13:00 -6°C° 0 mm 2 mps 747 mmHg 81%
    14:00 -7°C° 0 mm 3 mps 747 mmHg 82%
    15:00 -7°C° 0 mm 3 mps 746 mmHg 83%
    16:00 -7°C° 0 mm 2 mps 746 mmHg 85%
    17:00 -8°C° 0 mm 2 mps 746 mmHg 87%
    18:00 -8°C° 0 mm 1 mps 746 mmHg 90%
    19:00 -8°C° 0 mm 1 mps 746 mmHg 89%
    20:00 -9°C° 0 mm 1 mps 746 mmHg 89%
    21:00 -10°C° 0 mm 1 mps 746 mmHg 89%
    22:00 -10°C° 0 mm 1 mps 746 mmHg 89%
    23:00 -11°C° 0 mm 1 mps 745 mmHg 89%
    Show more